Weather History for Konya, Turkey

Change the Weather History Date:

Wednesday, April 30, 2014

  Actual Average Record
Temperature  
Mean Temperature 53 °F -  
Max Temperature 70 °F 71 °F 82 °F (2001)
Min Temperature 36 °F 47 °F 33 °F (2005)
Degree Days  
Heating Degree Days 12    
Growing Degree Days 3 (Base 50)    
Moisture  
Dew Point 35 °F    
Average Humidity 53    
Maximum Humidity 87    
Minimum Humidity 15    
Precipitation  
Precipitation 0.08 in 0.06 in - ()
Sea Level Pressure  
Sea Level Pressure 29.84 in    
Wind  
Wind Speed 6 mph ()    
Max Wind Speed 21 mph    
Max Gust Speed 32 mph    
Visibility 8.1 miles    
Events Rain    
Averages and records for this station are not official NWS values.
T = Trace of Precipitation, MM = Missing Value Source: Averaged Metar Reports

Daily Weather History Graph

Daily Weather History Graph

Search for Another Location

Airport:

Trip Planner

Search our weather history database for the weather conditions in past years. The results will help you decide how hot, cold, wet, or windy it might be!

Date:

Astronomy

Apr. 30, 2014 Rise Set
Actual Time 5:55 AM EEST 7:39 PM EEST
Civil Twilight 5:27 AM EEST 8:07 PM EEST
Nautical Twilight 4:52 AM EEST 8:41 PM EEST
Astronomical Twilight 4:16 AM EEST 9:18 PM EEST
Moon 6:41 AM EEST (4/30) 8:58 PM EEST (4/30)
Length of Visible Light 14h 40m
Length of Day
13h 44m
New Moon, 1% of the Moon is Illuminated
Apr 30
New Moon
May 7
First Quarter
May 14
Full
May 21
Last Quarter
May 28
New

Hourly Weather History & Observations

Time (EEST) Temp. Dew Point Humidity Pressure Visibility Wind Dir Wind Speed Gust Speed Precip Events Conditions
12:00 AM 49 °F 37 °F 53%  in 12 mi Calm Calm - -  
12:50 AM 46.4 °F 37.4 °F 71% 29.92 in - East 2.3 mph - N/A   Clear
1:50 AM 42.8 °F 35.6 °F 76% 29.89 in - NE 1.2 mph - N/A   Clear
2:50 AM 41.0 °F 35.6 °F 81% 29.89 in - Variable 2.3 mph - N/A   Clear
3:00 AM 41 °F 35 °F 73%  in 12 mi North 2.3 mph - -  
3:50 AM 39.2 °F 33.8 °F 81% 29.89 in - Calm Calm - N/A   Clear
4:50 AM 37.4 °F 33.8 °F 87% 29.86 in - WNW 1.2 mph - N/A   Clear
5:50 AM 37.4 °F 33.8 °F 87% 29.86 in - Calm Calm - N/A   Clear
6:00 AM 38 °F 33 °F 77%  in 12 mi Calm Calm - -  
6:50 AM 41.0 °F 35.6 °F 81% 29.86 in - NE 1.2 mph - N/A   Clear
7:50 AM 46.4 °F 39.2 °F 76% 29.89 in - Calm Calm - N/A   Clear
8:50 AM 51.8 °F 39.2 °F 62% 29.89 in - Variable 1.2 mph - N/A   Clear
9:00 AM 52 °F 40 °F 52%  in 12 mi ESE 1.2 mph - -   Clear
9:50 AM 55.4 °F 37.4 °F 51% 29.86 in - SSE 5.8 mph - N/A   Clear
10:50 AM 60.8 °F 35.6 °F 39% 29.86 in - South 8.1 mph - N/A   Clear
11:50 AM 64.4 °F 30.2 °F 28% 29.83 in 6.2 mi South 10.4 mph - N/A   Partly Cloudy
12:00 PM 64 °F 29 °F 16%  in 12 mi South 10.4 mph - -   Scattered Clouds
12:50 PM 68.0 °F 28.4 °F 23% 29.80 in 6.2 mi South 15.0 mph - N/A   Partly Cloudy
1:50 PM 69.8 °F 33.8 °F 27% 29.80 in 6.2 mi SW 16.1 mph - N/A   Scattered Clouds
2:50 PM 68.0 °F 32.0 °F 26% 29.77 in 6.2 mi SW 19.6 mph 32.2 mph N/A   Scattered Clouds
3:00 PM 68 °F 31 °F 15%  in 12 mi SW 19.6 mph - -   Partly Cloudy
3:50 PM 68.0 °F 32.0 °F 26% 29.77 in 6.2 mi SW 19.6 mph 32.2 mph N/A   Partly Cloudy
4:50 PM 66.2 °F 30.2 °F 26% 29.74 in 6.2 mi SW 20.7 mph - N/A   Partly Cloudy
5:50 PM 64.4 °F 30.2 °F 28% 29.77 in 6.2 mi SW 16.1 mph - N/A   Scattered Clouds
6:00 PM 65 °F 29 °F 15%  in 12 mi SW 16.1 mph - -   Partly Cloudy
6:50 PM 60.8 °F 32.0 °F 34% 29.77 in 6.2 mi WSW 19.6 mph - N/A   Scattered Clouds
7:50 PM 57.2 °F 37.4 °F 48% 29.80 in 6.2 mi WSW 17.3 mph 32.2 mph N/A Rain Light Rain Showers
8:50 PM 50.0 °F 39.2 °F 66% 29.83 in 6.2 mi West 18.4 mph - N/A Rain Light Rain Showers
9:00 PM 50 °F 39 °F 56%  in 6 mi West 18.4 mph - - Rain Light Rain Showers
9:50 PM 50.0 °F 42.8 °F 76% 29.86 in 6.2 mi WSW 11.5 mph - N/A Rain Light Rain Showers
10:50 PM 50.0 °F 41.0 °F 71% 29.86 in 6.2 mi West 15.0 mph - N/A Rain Light Rain Showers
11:50 PM 50.0 °F 41.0 °F 71% 29.86 in 6.2 mi West 11.5 mph - N/A Rain Light Rain Showers